| time (UTC) | temp C | wind direction | speed KPH | gust KPH | rain 1hr cm | rain 24hr cm | rain mn cm | humidity % | barometer mb |
| 20260905171506 | 21 | 315 | 0.0 | 6.4 | 0.00 | 0.00 | 0.00 | 76 | 1012.2 |
| 20260905170003 | 21 | 290 | 4.8 | 9.7 | 0.00 | 0.00 | 0.00 | 75 | 1012.3 |
| 20260905164607 | 20 | 319 | 1.6 | 8.0 | 0.00 | 0.00 | 0.00 | 77 | 1012.3 |
| 20260905163059 | 20 | 30 | 3.2 | 9.7 | 0.00 | 0.00 | 0.00 | 77 | 1012.5 |
| 20260905161600 | 20 | 308 | 0.0 | 8.0 | 0.00 | 0.00 | 0.00 | 80 | 1012.5 |
| 20260905160116 | 20 | 53 | 6.4 | 17.7 | 0.00 | 0.00 | 0.00 | 77 | 1012.2 |
| 20260905154555 | 20 | 338 | 1.6 | 6.4 | 0.00 | 0.00 | 0.00 | 80 | 1012.2 |
| 20260905153100 | 20 | 23 | 0.0 | 6.4 | 0.00 | 0.00 | 0.00 | 80 | 1012.3 |
| 20260905151553 | 20 | 307 | 1.6 | 8.0 | 0.00 | 0.00 | 0.00 | 80 | 1012.4 |
| 20260905150054 | 19 | 8 | 1.6 | 9.7 | 0.00 | 0.00 | 0.00 | 81 | 1012.3 |
| 20260905144550 | 20 | 312 | 0.0 | 9.7 | 0.00 | 0.00 | 0.00 | 83 | 1012.2 |
| 20260905143048 | 19 | 6 | 3.2 | 11.3 | 0.00 | 0.00 | 0.00 | 83 | 1012.1 |
| 20260905141554 | 18 | 5 | 3.2 | 16.1 | 0.00 | 0.00 | 0.00 | 84 | 1012.1 |
| 20260905140047 | 18 | 303 | 1.6 | 9.7 | 0.00 | 0.00 | 0.00 | 86 | 1012.2 |
| 20260905134546 | 18 | 2 | 1.6 | 6.4 | 0.00 | 0.00 | 0.00 | 88 | 1012.1 |
| 20260905133046 | 17 | 30 | 0.0 | 4.8 | 0.00 | 0.00 | 0.00 | 91 | 1012.1 |
| 20260905131602 | 17 | 45 | 3.2 | 11.3 | 0.00 | 0.00 | 0.00 | 92 | 1012.0 |
| 20260905130049 | 16 | 311 | 1.6 | 6.4 | 0.00 | 0.00 | 0.00 | 94 | 1012.2 |
| 20260905124545 | 16 | 329 | 1.6 | 8.0 | 0.00 | 0.00 | 0.00 | 94 | 1012.4 |
| 20260905123044 | 16 | 19 | 1.6 | 4.8 | 0.00 | 0.00 | 0.00 | 95 | 1012.4 |
| 20260905121544 | 16 | 40 | 1.6 | 6.4 | 0.00 | 0.00 | 0.00 | 95 | 1012.5 |
| 20260905120043 | 15 | 332 | 0.0 | 6.4 | 0.00 | 0.00 | 0.00 | 95 | 1012.4 |
| 20260905114543 | 15 | 313 | 0.0 | 8.0 | 0.00 | 0.00 | 0.00 | 95 | 1012.2 |
| 20260905113042 | 15 | 10 | 1.6 | 6.4 | 0.00 | 0.00 | 0.00 | 95 | 1012.1 |
| 20260905111601 | 15 | 348 | 1.6 | 6.4 | 0.00 | 0.00 | 0.00 | 94 | 1011.8 |
| 20260905110039 | 15 | 34 | 3.2 | 6.4 | 0.00 | 0.00 | 0.00 | 94 | 1011.7 |
| 20260905104538 | 15 | 340 | 1.6 | 4.8 | 0.00 | 0.00 | 0.00 | 94 | 1011.5 |
| 20260905103040 | 15 | 11 | 0.0 | 3.2 | 0.00 | 0.00 | 0.00 | 93 | 1011.4 |
| 20260905101539 | 16 | 37 | 0.0 | 1.6 | 0.00 | 0.00 | 0.00 | 93 | 1011.4 |
| 20260905100035 | 16 | 29 | 0.0 | 3.2 | 0.00 | 0.00 | 0.00 | 92 | 1011.2 |
| 20260905094534 | 16 | 1 | 1.6 | 4.8 | 0.00 | 0.00 | 0.00 | 92 | 1011.1 |
| 20260905093035 | 16 | 342 | 1.6 | 8.0 | 0.00 | 0.00 | 0.00 | 91 | 1011.0 |
| 20260905091534 | 16 | 6 | 1.6 | 8.0 | 0.00 | 0.00 | 0.00 | 91 | 1011.0 |
| 20260905090029 | 16 | 357 | 3.2 | 8.0 | 0.00 | 0.00 | 0.00 | 90 | 1011.0 |
| 20260905084529 | 17 | 309 | 3.2 | 9.7 | 0.00 | 0.00 | 0.00 | 89 | 1010.8 |
| 20260905083023 | 17 | 325 | 3.2 | 9.7 | 0.00 | 0.00 | 0.00 | 88 | 1010.8 |
| 20260905081522 | 17 | 293 | 3.2 | 11.3 | 0.00 | 0.00 | 0.00 | 88 | 1010.9 |
| 20260905080018 | 17 | 347 | 4.8 | 14.5 | 0.00 | 0.00 | 0.00 | 87 | 1010.9 |
| 20260905074516 | 17 | 320 | 4.8 | 9.7 | 0.00 | 0.00 | 0.00 | 87 | 1011.1 |
| 20260905073019 | 17 | 34 | 3.2 | 9.7 | 0.00 | 0.00 | 0.00 | 86 | 1011.0 |
| 20260905071523 | 18 | 35 | 4.8 | 9.7 | 0.00 | 0.00 | 0.00 | 86 | 1011.2 |
| 20260905070011 | 18 | 349 | 1.6 | 9.7 | 0.00 | 0.00 | 0.00 | 86 | 1011.2 |
| 20260905064508 | 18 | 337 | 4.8 | 11.3 | 0.00 | 0.00 | 0.00 | 85 | 1011.2 |
| 20260905063006 | 18 | 6 | 3.2 | 9.7 | 0.00 | 0.00 | 0.00 | 84 | 1011.4 |
| 20260905061504 | 18 | 345 | 3.2 | 12.9 | 0.00 | 0.00 | 0.00 | 83 | 1011.5 |
| 20260905060003 | 18 | 18 | 4.8 | 9.7 | 0.00 | 0.00 | 0.00 | 84 | 1011.5 |
| 20260905054602 | 18 | 300 | 3.2 | 8.0 | 0.00 | 0.03 | 0.00 | 84 | 1011.7 |
| 20260905053139 | 18 | 336 | 3.2 | 9.7 | 0.00 | 0.03 | 0.00 | 84 | 1011.8 |
| 20260905051556 | 18 | 322 | 1.6 | 8.0 | 0.00 | 0.03 | 0.00 | 86 | 1012.2 |
| 20260905050054 | 18 | 325 | 1.6 | 4.8 | 0.00 | 0.03 | 0.00 | 86 | 1012.3 |
| 20260905044552 | 18 | 319 | 0.0 | 4.8 | 0.00 | 0.03 | 0.00 | 85 | 1012.4 |
| 20260905043050 | 18 | 11 | 0.0 | 4.8 | 0.00 | 0.03 | 0.00 | 85 | 1012.5 |
| 20260905041549 | 19 | 338 | 0.0 | 3.2 | 0.00 | 0.03 | 0.00 | 84 | 1012.5 |
| 20260905040046 | 19 | 314 | 1.6 | 4.8 | 0.00 | 0.03 | 0.00 | 84 | 1012.6 |
| 20260905034543 | 19 | 28 | 0.0 | 8.0 | 0.00 | 0.03 | 0.03 | 84 | 1012.5 |
| 20260905033055 | 19 | 340 | 3.2 | 8.0 | 0.00 | 0.03 | 0.03 | 84 | 1012.5 |
| 20260905031544 | 19 | 296 | 3.2 | 8.0 | 0.00 | 0.03 | 0.03 | 84 | 1012.5 |
| 20260905030041 | 19 | 24 | 1.6 | 8.0 | 0.00 | 0.03 | 0.03 | 83 | 1012.6 |
| 20260905024541 | 20 | 349 | 1.6 | 8.0 | 0.00 | 0.03 | 0.03 | 83 | 1012.4 |
| 20260905023043 | 20 | 332 | 1.6 | 6.4 | 0.00 | 0.03 | 0.03 | 83 | 1012.4 |
| 20260905021539 | 20 | 18 | 1.6 | 6.4 | 0.00 | 0.03 | 0.03 | 82 | 1012.6 |
| 20260905020037 | 20 | 347 | 1.6 | 3.2 | 0.00 | 0.03 | 0.03 | 82 | 1012.6 |
| 20260905014536 | 20 | 10 | 1.6 | 6.4 | 0.00 | 0.03 | 0.03 | 81 | 1012.7 |
| 20260905013036 | 20 | 5 | 1.6 | 6.4 | 0.00 | 0.03 | 0.03 | 81 | 1012.6 |
| 20260905011536 | 20 | 281 | 1.6 | 4.8 | 0.00 | 0.03 | 0.03 | 81 | 1012.5 |
| 20260905010035 | 20 | 18 | 0.0 | 4.8 | 0.00 | 0.03 | 0.03 | 79 | 1012.5 |
| 20260905004535 | 20 | 346 | 1.6 | 6.4 | 0.00 | 0.03 | 0.03 | 79 | 1012.6 |
| 20260905003034 | 21 | 23 | 1.6 | 3.2 | 0.00 | 0.03 | 0.03 | 79 | 1012.5 |
| 20260905001532 | 21 | 18 | 1.6 | 4.8 | 0.00 | 0.03 | 0.03 | 79 | 1012.3 |
| 20260905000031 | 21 | 2 | 1.6 | 8.0 | 0.00 | 0.03 | 0.03 | 79 | 1012.1 |
| 20260904234530 | 21 | 293 | 1.6 | 11.3 | 0.00 | 0.03 | 0.03 | 78 | 1012.1 |
| 20260904233030 | 21 | 356 | 0.0 | 6.4 | 0.00 | 0.03 | 0.03 | 78 | 1012.1 |
| 20260904231535 | 22 | 359 | 3.2 | 8.0 | 0.00 | 0.03 | 0.03 | 77 | 1011.9 |
| 20260904230030 | 22 | 5 | 1.6 | 6.4 | 0.00 | 0.03 | 0.03 | 77 | 1012.1 |
| 20260904224529 | 22 | 323 | 1.6 | 8.0 | 0.00 | 0.03 | 0.03 | 77 | 1012.1 |
| 20260904223030 | 22 | 333 | 3.2 | 8.0 | 0.00 | 0.03 | 0.03 | 75 | 1012.1 |
| 20260904221528 | 23 | 323 | 1.6 | 6.4 | 0.00 | 0.03 | 0.03 | 75 | 1012.4 |
| 20260904220027 | 23 | 338 | 1.6 | 4.8 | 0.00 | 0.03 | 0.03 | 75 | 1012.3 |
| 20260904214539 | 23 | 334 | 0.0 | 8.0 | 0.00 | 0.03 | 0.03 | 74 | 1012.1 |
| 20260904213033 | 23 | 6 | 1.6 | 8.0 | 0.00 | 0.03 | 0.03 | 74 | 1012.0 |
| 20260904211526 | 24 | 293 | 1.6 | 6.4 | 0.00 | 0.03 | 0.03 | 74 | 1011.7 |
| 20260904210029 | 24 | 328 | 3.2 | 11.3 | 0.00 | 0.03 | 0.03 | 72 | 1011.7 |
| 20260904204526 | 23 | 326 | 4.8 | 9.7 | 0.00 | 0.03 | 0.03 | 73 | 1012.0 |
| 20260904203023 | 23 | 309 | 3.2 | 11.3 | 0.00 | 0.03 | 0.03 | 73 | 1012.3 |
| 20260904201522 | 24 | 21 | 3.2 | 14.5 | 0.00 | 0.03 | 0.03 | 72 | 1012.3 |
| 20260904200022 | 24 | 238 | 4.8 | 11.3 | 0.00 | 0.03 | 0.03 | 71 | 1012.5 |
| 20260904194521 | 23 | 313 | 3.2 | 12.9 | 0.00 | 0.03 | 0.03 | 73 | 1012.5 |
| 20260904193020 | 23 | 337 | 3.2 | 11.3 | 0.00 | 0.03 | 0.03 | 73 | 1012.5 |
| 20260904191519 | 24 | 314 | 3.2 | 11.3 | 0.00 | 0.03 | 0.03 | 74 | 1012.7 |
| 20260904190027 | 24 | 356 | 4.8 | 9.7 | 0.00 | 0.03 | 0.03 | 73 | 1012.7 |
| 20260904184518 | 24 | 335 | 1.6 | 9.7 | 0.00 | 0.03 | 0.03 | 72 | 1013.0 |
| 20260904183017 | 24 | 304 | 4.8 | 16.1 | 0.00 | 0.03 | 0.03 | 72 | 1013.0 |
| 20260904181516 | 23 | 317 | 3.2 | 19.3 | 0.00 | 0.03 | 0.03 | 73 | 1013.0 |
| 20260904180014 | 23 | 314 | 4.8 | 14.5 | 0.00 | 0.03 | 0.03 | 72 | 1013.0 |
| 20260904174523 | 23 | 304 | 4.8 | 17.7 | 0.00 | 0.03 | 0.03 | 74 | 1012.9 |
| 20260904173012 | 23 | 323 | 4.8 | 17.7 | 0.00 | 0.03 | 0.03 | 75 | 1012.9 |